DW6558 Weather Reports


time (UTC)temp
C
wind
direction
speed
KPH
gust
KPH
rain 1hr
cm
rain 24hr
cm
rain mn
cm
humidity
%
barometer
mb
20260502204719 20 219 6.4 16.1 0.00 0.00 0.00 17 933.5
20260502204217 18 25 4.8 14.5 0.00 0.00 0.00 18 933.5
20260502203714 18 120 4.8 8.0 0.00 0.00 0.00 19 933.5
20260502203212 18 138 0.0 8.0 0.00 0.00 0.00 18 933.7
20260502202706 18 247 8.0 9.7 0.00 0.00 0.00 19 933.7
20260502202204 18 316 4.8 12.9 0.00 0.00 0.00 19 933.9
20260502201701 18 343 4.8 8.0 0.00 0.00 0.00 18 933.9
20260502201158 17 320 3.2 14.5 0.00 0.00 0.00 18 934.0
20260502200653 18 271 4.8 9.7 0.00 0.00 0.00 18 934.0
20260502200150 18 313 4.8 9.7 0.00 0.00 0.00 19 934.0
20260502195648 19 276 14.5 24.1 0.00 0.00 0.00 17 933.9
20260502195144 17 33 0.0 8.0 0.00 0.00 0.00 18 934.0
20260502194641 17 235 4.8 11.3 0.00 0.00 0.00 17 933.9
20260502194138 18 264 8.0 14.5 0.00 0.00 0.00 19 934.1
20260502193634 18 251 11.3 14.5 0.00 0.00 0.00 18 934.2
20260502193131 18 260 4.8 12.9 0.00 0.00 0.00 19 934.2
20260502192627 17 212 3.2 12.9 0.00 0.00 0.00 18 934.2
20260502192125 17 191 0.0 11.3 0.00 0.00 0.00 17 934.5
20260502191621 17 312 12.9 16.1 0.00 0.00 0.00 19 934.3
20260502191119 17 337 9.7 14.5 0.00 0.00 0.00 19 934.4
20260502190616 17 321 6.4 14.5 0.00 0.00 0.00 19 934.7
20260502190114 16 14 1.6 12.9 0.00 0.00 0.00 19 934.4
20260502185608 17 246 8.0 11.3 0.00 0.00 0.00 20 934.7
20260502185106 17 267 8.0 17.7 0.00 0.00 0.00 19 934.7
20260502184602 17 175 6.4 11.3 0.00 0.00 0.00 20 934.7
20260502184057 17 328 14.5 16.1 0.00 0.00 0.00 21 934.8
20260502183554 16 179 0.0 3.2 0.00 0.00 0.00 22 934.7
20260502183050 15 9 11.3 16.1 0.00 0.00 0.00 21 935.1
20260502182545 16 16 8.0 14.5 0.00 0.00 0.00 20 934.9
20260502182041 17 44 0.0 0.0 0.00 0.00 0.00 21 935.0
20260502181539 17 255 8.0 11.3 0.00 0.00 0.00 19 935.1
20260502181038 17 337 6.4 12.9 0.00 0.00 0.00 20 935.2
20260502180534 17 246 0.0 0.0 0.00 0.00 0.00 19 935.2
20260502170453 16 75 0.0 3.2 0.00 0.00 0.00 21 935.5
20260502163931 15 211 0.0 4.8 0.00 0.00 0.00 27 935.7
20260502163427 15 92 0.0 3.2 0.00 0.00 0.00 26 935.7
20260502162926 14 309 8.0 9.7 0.00 0.00 0.00 26 935.5
20260502162422 13 177 1.6 4.8 0.00 0.00 0.00 26 935.5
20260502161919 13 330 0.0 3.2 0.00 0.00 0.00 27 935.6
20260502161415 13 299 0.0 9.7 0.00 0.00 0.00 28 935.6
20260502160913 13 355 0.0 8.0 0.00 0.00 0.00 27 935.7
20260502160411 12 356 0.0 4.8 0.00 0.00 0.00 29 935.8
20260502151849 11 51 0.0 0.0 0.00 0.00 0.00 36 936.0
20260502151345 10 71 0.0 0.0 0.00 0.00 0.00 37 936.0
20260502150843 10 127 0.0 0.0 0.00 0.00 0.00 39 935.9
20260502150339 10 80 0.0 0.0 0.00 0.00 0.00 39 936.1
20260502130727 0 123 4.8 9.7 0.00 0.00 0.00 68 935.8
20260502130225 -1 107 4.8 9.7 0.00 0.00 0.00 68 935.7
20260502123711 -1 120 4.8 8.0 0.00 0.00 0.00 70 935.5
20260502123208 -1 127 4.8 11.3 0.00 0.00 0.00 70 935.5
20260502122704 -1 124 6.4 9.7 0.00 0.00 0.00 70 935.5
20260502122200 -1 110 4.8 8.0 0.00 0.00 0.00 70 935.5
20260502121659 -1 135 4.8 11.3 0.00 0.00 0.00 70 935.2
20260502121156 -1 128 8.0 11.3 0.00 0.00 0.00 70 935.6
20260502120653 -1 141 8.0 8.0 0.00 0.00 0.00 71 935.5
20260502120150 -2 118 4.8 4.8 0.00 0.00 0.00 72 935.3
20260502115647 -2 110 3.2 4.8 0.00 0.00 0.00 72 935.2
20260502115143 -2 112 3.2 8.0 0.00 0.00 0.00 72 935.5
20260502114640 -2 123 8.0 9.7 0.00 0.00 0.00 72 935.3
20260502114137 -2 114 4.8 9.7 0.00 0.00 0.00 71 935.5
20260502113634 -1 119 6.4 8.0 0.00 0.00 0.00 70 935.5
20260502113132 -1 98 3.2 4.8 0.00 0.00 0.00 70 935.2
20260502112630 -1 124 4.8 8.0 0.00 0.00 0.00 70 935.6
20260502112127 -1 133 6.4 11.3 0.00 0.00 0.00 70 935.2
20260502111624 -1 120 4.8 4.8 0.00 0.00 0.00 69 935.3
20260502111122 -1 119 4.8 4.8 0.00 0.00 0.00 69 935.3
20260502110619 -1 120 4.8 8.0 0.00 0.00 0.00 68 935.6
20260502110117 -1 115 3.2 8.0 0.00 0.00 0.00 69 935.7
20260502105614 -1 124 6.4 8.0 0.00 0.00 0.00 68 935.5
20260502105111 -1 120 4.8 8.0 0.00 0.00 0.00 68 935.6
20260502104608 -1 147 6.4 14.5 0.00 0.00 0.00 68 935.2
20260502104105 -1 127 8.0 11.3 0.00 0.00 0.00 68 935.5
20260502103603 -1 127 8.0 9.7 0.00 0.00 0.00 68 935.3
20260502103101 -1 105 4.8 8.0 0.00 0.00 0.00 68 935.0
20260502102557 -1 118 4.8 9.7 0.00 0.00 0.00 68 935.3
20260502102054 -1 119 4.8 8.0 0.00 0.00 0.00 67 935.2
20260502101552 -1 128 6.4 9.7 0.00 0.00 0.00 67 935.1
20260502101050 -1 126 8.0 11.3 0.00 0.00 0.00 67 935.2
20260502100548 -1 126 9.7 11.3 0.00 0.00 0.00 67 935.0
20260502091523 0 141 8.0 11.3 0.00 0.00 0.00 65 935.0
20260502091020 0 128 8.0 9.7 0.00 0.00 0.00 65 935.2
20260502090517 0 107 3.2 4.8 0.00 0.00 0.00 64 935.2
20260502071412 1 128 4.8 8.0 0.00 0.00 0.00 61 935.3
20260502070910 1 140 4.8 9.7 0.00 0.00 0.00 61 935.3
20260502070407 1 127 4.8 9.7 0.00 0.00 0.00 61 935.2
20260502065906 1 133 0.0 0.0 0.00 0.00 0.00 59 935.2
20260502065404 2 126 0.0 0.0 0.00 0.00 0.00 56 934.8
20260502064902 2 115 0.0 0.0 0.00 0.00 0.00 54 935.0
20260502064359 1 104 0.0 0.0 0.00 0.00 0.00 56 935.0
20260502063856 1 103 0.0 1.6 0.00 0.00 0.00 57 934.8
20260502063354 2 71 0.0 0.0 0.00 0.00 0.00 56 935.1
20260502062851 3 119 0.0 0.0 0.00 0.00 0.00 51 934.8
20260502062348 2 138 0.0 11.3 0.00 0.00 0.00 52 934.8
20260502061847 2 122 0.0 1.6 0.00 0.00 0.00 57 934.9
20260502061345 2 107 0.0 0.0 0.00 0.00 0.00 53 934.7
20260502060840 2 137 0.0 9.7 0.00 0.00 0.00 51 934.9
20260502060335 3 128 6.4 9.7 0.00 0.00 0.00 49 934.9
20260502055833 3 129 4.8 11.3 0.00 0.00 0.00 48 934.9
20260502055331 3 118 8.0 11.3 0.00 0.00 0.00 46 935.0
20260502054831 2 107 4.8 11.3 0.00 0.00 0.00 47 934.8
20260502054328 2 65 0.0 0.0 0.00 0.00 0.00 51 934.7
20260502053825 3 103 0.0 1.6 0.00 0.00 0.00 51 934.5
20260502053322 3 130 4.8 11.3 0.00 0.00 0.00 51 934.4
20260502052820 3 110 3.2 8.0 0.00 0.00 0.00 50 934.8
20260502052318 3 127 6.4 9.7 0.00 0.00 0.00 50 934.5
20260502051815 3 142 4.8 11.3 0.00 0.00 0.00 50 934.7
20260502051314 3 122 6.4 12.9 0.00 0.00 0.00 49 934.5
20260502050809 3 136 9.7 11.3 0.00 0.00 0.00 49 934.5
20260502050306 4 132 8.0 12.9 0.00 0.00 0.00 47 934.3
20260502045803 3 131 11.3 14.5 0.00 0.00 0.00 48 934.9
20260502045300 4 133 9.7 14.5 0.00 0.00 0.00 48 934.7
20260502044757 4 130 9.7 12.9 0.00 0.00 0.00 47 934.4
20260502044253 4 131 9.7 11.3 0.00 0.00 0.00 46 934.4
20260502043750 5 141 6.4 12.9 0.00 0.00 0.00 45 934.5
20260502043248 5 112 9.7 12.9 0.00 0.00 0.00 44 934.4
20260502042747 5 133 6.4 12.9 0.00 0.00 0.00 43 934.8
20260502042245 5 130 0.0 4.8 0.00 0.00 0.00 42 934.4
20260502041742 4 65 0.0 0.0 0.00 0.00 0.00 46 934.4
20260502041240 4 57 0.0 0.0 0.00 0.00 0.00 45 934.7
20260502040736 5 62 0.0 0.0 0.00 0.00 0.00 44 934.5
20260502040233 4 64 0.0 0.0 0.00 0.00 0.00 44 934.3
20260502035729 5 70 0.0 0.0 0.00 0.00 0.00 43 934.2
20260502035226 5 52 0.0 0.0 0.00 0.00 0.00 44 934.2
20260502034723 5 53 0.0 0.0 0.00 0.00 0.00 42 934.0
20260502034222 5 55 0.0 0.0 0.00 0.00 0.00 44 934.1
20260502033719 5 47 0.0 0.0 0.00 0.00 0.00 44 933.9
20260502033217 6 33 0.0 0.0 0.00 0.00 0.00 44 933.9
20260502032713 7 102 0.0 0.0 0.00 0.00 0.00 35 933.5
20260502032209 7 93 0.0 0.0 0.00 0.00 0.00 36 933.6
20260502031708 8 102 0.0 0.0 0.00 0.00 0.00 33 933.5
20260502031205 8 126 0.0 0.0 0.00 0.00 0.00 33 933.6
20260502030704 8 118 0.0 1.6 0.00 0.00 0.00 34 933.4
20260502030201 8 119 1.6 9.7 0.00 0.00 0.00 33 933.5
20260502025658 8 137 9.7 11.3 0.00 0.00 0.00 33 933.4
20260502025156 10 141 3.2 8.0 0.00 0.00 0.00 32 933.4
20260502024654 10 115 6.4 9.7 0.00 0.00 0.00 30 933.3
20260502024152 10 131 1.6 4.8 0.00 0.00 0.00 28 933.6
20260502023649 11 133 4.8 8.0 0.00 0.00 0.00 27 933.3
20260502023146 11 128 0.0 0.0 0.00 0.00 0.00 25 933.4
20260502022643 11 107 0.0 8.0 0.00 0.00 0.00 25 933.1
20260502022140 12 91 8.0 11.3 0.00 0.00 0.00 24 933.2
20260502021638 12 103 11.3 11.3 0.00 0.00 0.00 24 933.3
20260502021135 12 108 9.7 11.3 0.00 0.00 0.00 23 933.2
20260502020632 12 111 9.7 16.1 0.00 0.00 0.00 23 933.2
20260502020129 13 110 11.3 14.5 0.00 0.00 0.00 23 933.2
20260502015627 12 104 8.0 12.9 0.00 0.00 0.00 23 933.5
20260502015123 13 109 11.3 12.9 0.00 0.00 0.00 23 933.7
20260502014620 13 100 9.7 14.5 0.00 0.00 0.00 22 933.4
20260502014117 13 106 11.3 12.9 0.00 0.00 0.00 20 933.3
20260502013613 13 102 8.0 14.5 0.00 0.00 0.00 21 933.6
20260502013109 13 96 16.1 16.1 0.00 0.00 0.00 21 933.4
20260502012607 13 81 11.3 12.9 0.00 0.00 0.00 22 933.4
20260502012105 14 78 11.3 11.3 0.00 0.00 0.00 22 933.3
20260502011601 13 80 4.8 11.3 0.00 0.00 0.00 22 933.5
20260502011057 14 79 14.5 22.5 0.00 0.00 0.00 21 933.6
20260502010554 14 102 14.5 16.1 0.00 0.00 0.00 22 933.6
20260502010050 14 93 11.3 16.1 0.00 0.00 0.00 22 933.4
20260502005548 14 113 12.9 17.7 0.00 0.00 0.00 21 933.7
20260502005046 14 129 11.3 17.7 0.00 0.00 0.00 20 933.9
20260502004541 14 131 11.3 14.5 0.00 0.00 0.00 20 933.6
20260502004038 15 79 0.0 4.8 0.00 0.00 0.00 21 933.6
20260502003537 15 52 4.8 12.9 0.00 0.00 0.00 21 933.6
20260502003033 15 110 6.4 11.3 0.00 0.00 0.00 21 933.7
20260502002529 15 101 16.1 17.7 0.00 0.00 0.00 21 933.5
20260502002027 14 103 11.3 20.9 0.00 0.00 0.00 20 933.5
20260502001524 14 99 8.0 14.5 0.00 0.00 0.00 20 933.6
20260502001021 14 100 11.3 24.1 0.00 0.00 0.00 20 933.5
20260502000520 15 117 12.9 16.1 0.00 0.00 0.00 20 933.5
20260502000016 15 81 8.0 12.9 0.00 0.00 0.00 20 933.4
20260501235512 15 75 9.7 17.7 0.00 0.00 0.00 20 933.4
20260501235008 14 137 9.7 14.5 0.00 0.00 0.00 20 933.5
20260501234504 15 109 12.9 16.1 0.00 0.00 0.00 21 933.4
20260501234003 15 49 11.3 17.7 0.00 0.00 0.00 22 933.6
20260501233500 15 62 3.2 8.0 0.00 0.00 0.00 19 933.5
20260501232955 15 135 12.9 24.1 0.00 0.00 0.00 19 933.5
20260501232453 15 61 12.9 17.7 0.00 0.00 0.00 21 933.5
20260501231950 15 133 12.9 22.5 0.00 0.00 0.00 21 933.5
20260501231448 15 112 6.4 9.7 0.00 0.00 0.00 22 933.6
20260501230946 15 116 14.5 20.9 0.00 0.00 0.00 22 933.9
20260501230445 15 94 3.2 8.0 0.00 0.00 0.00 22 933.6
20260501225942 15 103 8.0 22.5 0.00 0.00 0.00 22 933.4
20260501225440 14 72 3.2 17.7 0.00 0.00 0.00 21 933.3
20260501224935 14 128 9.7 12.9 0.00 0.00 0.00 21 933.5
20260501224433 14 105 14.5 24.1 0.00 0.00 0.00 20 933.4
20260501223930 14 51 3.2 16.1 0.00 0.00 0.00 22 933.3
20260501223426 14 47 9.7 20.9 0.00 0.00 0.00 20 933.6
20260501222921 14 81 8.0 14.5 0.00 0.00 0.00 22 933.6
20260501222419 14 8 8.0 14.5 0.00 0.00 0.00 20 933.5
20260501221915 13 84 6.4 16.1 0.00 0.00 0.00 21 933.6
20260501221413 14 86 14.5 17.7 0.00 0.00 0.00 20 933.7
20260501220911 14 62 0.0 12.9 0.00 0.00 0.00 21 933.6
20260501220408 14 68 4.8 16.1 0.00 0.00 0.00 21 934.0
20260501215904 14 82 14.5 22.5 0.00 0.00 0.00 24 933.7
20260501215400 15 39 1.6 9.7 0.00 0.00 0.00 19 933.9
20260501214856 14 355 4.8 12.9 0.00 0.00 0.00 20 934.1
20260501214351 15 25 8.0 12.9 0.00 0.00 0.00 21 934.0
20260501213847 13 65 1.6 20.9 0.00 0.00 0.00 22 934.0
20260501213344 13 59 14.5 20.9 0.00 0.00 0.00 23 934.3
20260501212839 14 50 8.0 29.0 0.00 0.00 0.00 24 934.1
20260501212337 13 19 4.8 14.5 0.00 0.00 0.00 23 934.0
20260501211834 13 116 11.3 12.9 0.00 0.00 0.00 24 934.1
20260501211332 13 64 11.3 29.0 0.00 0.00 0.00 21 934.1
20260501210829 13 104 16.1 24.1 0.00 0.00 0.00 27 934.2
20260501210326 13 132 8.0 22.5 0.00 0.00 0.00 24 934.1
20260501205822 13 50 4.8 16.1 0.00 0.00 0.00 25 934.0
20260501205319 13 26 11.3 14.5 0.00 0.00 0.00 27 934.3